ROMMA est une association bénévole à but non lucratif. Votre soutien est indispensable : ADHERER à ROMMA ou FAIRE un DON

Val-d'Arly - (73, Savoie)

Beaufortain (2050 m)   Longitude: 06° 35' 21" E   Latitude: 45° 46' 53" N Station romma n°118
 

Détail journalier du     <<     >>

Température Precipitation Humidité Vent Dir Rafale Dir. rafale Ensol.
Heure (°C) (mm) (%) (km/h) (km/h) (min)
01:00 3.608417OSO23SO0
02:00 3.207611O16O0
03:00 3.308015OSO21O0
04:00 3.207716OSO21O0
05:00 2.907017O23O0
06:00 3.107017O23O0
07:00 3.206618OSO21O0
08:00 3.506217OSO23OSO50
09:00 4.005920SO29OSO50
10:00 2.707516OSO26OSO40
11:00 0.809317ONO27NO0
12:00 0.809321SO34SO0
13:00 2.609019SO34SO0
14:00 0.90.29411NNE37OSO0
15:00 1.209517ONO31ONO0
16:00 0.209517OSO31O0
17:00 -0.609610N26NNE0
18:00 -0.609610N23N0
19:00 -0.70967ONO15NNO0
20:00
21:00
22:00
23:00 -0.70968ONO15ONO0
minuit -0.80967ONO15ONO0

Graphique du 02-05-2019

 

Serveur OMMA